Weather History for PAGS - November, 2013

Change the Weather History Date:

Tuesday, November 26, 2013

  Actual Average Record
Temperature  
Mean Temperature 36 °F -  
Max Temperature 39 °F 34 °F 51 °F (2002)
Min Temperature 33 °F 26 °F -7 °F (1985)
Degree Days  
Heating Degree Days 29    
Moisture  
Dew Point 36 °F    
Average Humidity 96    
Maximum Humidity 100    
Minimum Humidity 93    
Precipitation  
Precipitation 0.00 in - - ()
Sea Level Pressure  
Sea Level Pressure 29.98 in    
Wind  
Wind Speed 2 mph (NE)    
Max Wind Speed 7 mph    
Max Gust Speed -    
Visibility 4 miles    
Events      
Averages and records for this station are not official NWS values.
T = Trace of Precipitation, MM = Missing Value Source: NWS Daily Summary

Daily Weather History Graph

Daily Weather History Graph

Search for Another Location

Airport or City:

Trip Planner

Search our weather history database for the weather conditions in past years. The results will help you decide how hot, cold, wet, or windy it might be!

Date:

Astronomy

Nov. 26, 2013 Rise Set
Actual Time 8:16 AM AKST 3:23 PM AKST
Civil Twilight 7:27 AM AKST 4:12 PM AKST
Nautical Twilight 6:36 AM AKST 5:03 PM AKST
Astronomical Twilight 5:48 AM AKST 5:51 PM AKST
Moon 12:00 AM AKST (11/26) 12:54 PM AKST (11/26)
Length of Visible Light 8h 44m
Length of Day
7h 06m
Last Quarter, 40% of the Moon is Illuminated
Nov 26
Last Quarter
Dec 2
New
Dec 9
First Quarter
Dec 17
Full
Dec 25
Last Quarter

Hourly Weather History & Observations

Time (AKST) Temp. Windchill Dew Point Humidity Pressure Visibility Wind Dir Wind Speed Gust Speed Precip Events Conditions
12:16 AM 39.2 °F 37.0 °F 37.4 °F 93% 29.98 in 10.0 mi East 3.5 mph - N/A   Overcast
12:36 AM 37.4 °F 33.8 °F 35.6 °F 93% 29.99 in 10.0 mi North 4.6 mph - N/A   Overcast
12:56 AM 37.4 °F - 35.6 °F 93% 30.00 in 10.0 mi Calm Calm - N/A   Mostly Cloudy
1:16 AM 39.2 °F 37.0 °F 37.4 °F 93% 30.00 in 10.0 mi ESE 3.5 mph - N/A   Overcast
1:36 AM 39.2 °F - 37.4 °F 93% 30.00 in 10.0 mi Calm Calm - N/A   Overcast
1:56 AM 39.2 °F 35.0 °F 37.4 °F 93% 30.00 in 10.0 mi East 5.8 mph - N/A   Overcast
2:16 AM 39.2 °F 35.0 °F 37.4 °F 93% 30.00 in 10.0 mi ESE 5.8 mph - N/A   Overcast
2:36 AM 39.2 °F 35.0 °F 37.4 °F 93% 30.00 in 10.0 mi ESE 5.8 mph - N/A   Overcast
2:56 AM 39.2 °F - 37.4 °F 93% 30.00 in 10.0 mi Calm Calm - N/A   Overcast
3:16 AM 39.2 °F 37.0 °F 37.4 °F 93% 30.00 in 10.0 mi ENE 3.5 mph - N/A   Overcast
3:36 AM 39.2 °F 37.0 °F 37.4 °F 93% 30.00 in 10.0 mi SE 3.5 mph - N/A   Overcast
3:56 AM 39.2 °F 35.9 °F 37.4 °F 93% 30.00 in 10.0 mi ESE 4.6 mph - N/A   Overcast
4:16 AM 39.2 °F - 37.4 °F 93% 30.00 in 10.0 mi Calm Calm - N/A   Overcast
4:36 AM 39.2 °F - 37.4 °F 93% 30.00 in 10.0 mi Calm Calm - N/A   Overcast
4:56 AM 39.2 °F - 37.4 °F 93% 30.00 in 10.0 mi Calm Calm - N/A   Overcast
5:16 AM 37.4 °F 34.9 °F 37.4 °F 100% 30.00 in 10.0 mi East 3.5 mph - N/A   Overcast
5:36 AM 37.4 °F 34.9 °F 35.6 °F 93% 29.99 in 10.0 mi SE 3.5 mph - N/A   Overcast
5:56 AM 39.2 °F 35.0 °F 37.4 °F 93% 29.99 in 10.0 mi SE 5.8 mph - N/A   Overcast
6:16 AM 37.4 °F 33.8 °F 37.4 °F 100% 29.98 in 10.0 mi SSE 4.6 mph - N/A   Overcast
6:36 AM 37.4 °F 34.9 °F 37.4 °F 100% 29.99 in 1.0 mi ESE 3.5 mph - N/A   Overcast
6:56 AM 37.4 °F 34.9 °F 37.4 °F 100% 29.99 in 0.8 mi ESE 3.5 mph - N/A   Overcast
7:16 AM 37.4 °F 34.9 °F 35.6 °F 93% 29.99 in 0.8 mi East 3.5 mph - N/A   Overcast
7:36 AM 37.4 °F - 37.4 °F 100% 30.00 in 0.8 mi Calm Calm - N/A   Overcast
7:56 AM 37.4 °F 33.8 °F 35.6 °F 93% 30.00 in 0.5 mi North 4.6 mph - N/A   Overcast
8:16 AM 37.4 °F 33.8 °F 35.6 °F 93% 30.00 in 0.2 mi NNW 4.6 mph - N/A   Overcast
8:36 AM 37.4 °F 33.8 °F 35.6 °F 93% 30.00 in 0.2 mi NNW 4.6 mph - N/A   Overcast
8:56 AM 37.4 °F 34.9 °F 35.6 °F 93% 30.00 in 0.2 mi NNW 3.5 mph - N/A   Overcast
9:16 AM 37.4 °F 34.9 °F 35.6 °F 93% 30.00 in 0.2 mi NNW 3.5 mph - N/A   Overcast
9:36 AM 37.4 °F - 35.6 °F 93% 30.00 in 0.2 mi Calm Calm - N/A   Overcast
9:56 AM 37.4 °F - 35.6 °F 93% 30.00 in 0.2 mi Calm Calm - N/A   Overcast
10:16 AM 37.4 °F 32.1 °F 35.6 °F 93% 30.00 in 0.2 mi NNW 6.9 mph - N/A   Overcast
10:36 AM 37.4 °F 32.8 °F 35.6 °F 93% 30.01 in 0.2 mi NNW 5.8 mph - N/A   Overcast
10:56 AM 37.4 °F - 35.6 °F 93% 30.01 in 0.2 mi Calm Calm - N/A   Overcast
11:16 AM 37.4 °F 33.8 °F 35.6 °F 93% 30.01 in 0.2 mi NNW 4.6 mph - N/A   Overcast
11:36 AM 37.4 °F 32.8 °F 35.6 °F 93% 30.01 in 0.2 mi NNW 5.8 mph - N/A   Overcast
11:56 AM 37.4 °F - 37.4 °F 100% 30.00 in 0.2 mi Calm Calm - N/A   Overcast
12:16 PM 37.4 °F 34.9 °F 37.4 °F 100% 30.00 in 0.2 mi North 3.5 mph - N/A   Overcast
12:36 PM 37.4 °F 32.8 °F 37.4 °F 100% 30.00 in 0.2 mi NNW 5.8 mph - N/A   Overcast
12:56 PM 37.4 °F 32.8 °F 37.4 °F 100% 29.99 in 0.8 mi North 5.8 mph - N/A   Overcast
1:16 PM 37.4 °F - 37.4 °F 100% 30.00 in 10.0 mi Calm Calm - N/A   Overcast
1:36 PM 37.4 °F 34.9 °F 37.4 °F 100% 29.99 in 10.0 mi WNW 3.5 mph - N/A   Overcast
1:56 PM 37.4 °F - 37.4 °F 100% 29.99 in 10.0 mi Calm Calm - N/A   Overcast
2:16 PM 37.4 °F - 37.4 °F 100% 29.98 in 10.0 mi North - - N/A   Overcast
2:36 PM 37.4 °F - 35.6 °F 93% 29.98 in 3.0 mi Calm Calm - N/A   Overcast
2:56 PM 37.4 °F - 35.6 °F 93% 29.98 in 0.2 mi Calm Calm - N/A   Overcast
3:16 PM 37.4 °F - 35.6 °F 93% 29.97 in 0.2 mi Calm Calm - N/A   Overcast
3:36 PM 37.4 °F - 35.6 °F 93% 29.97 in 0.2 mi Calm Calm - N/A   Overcast
3:56 PM 37.4 °F - 35.6 °F 93% 29.97 in 0.2 mi Calm Calm - N/A   Overcast
4:16 PM 35.6 °F - 33.8 °F 93% 29.97 in 0.2 mi Calm Calm - N/A   Overcast
4:36 PM 35.6 °F 32.8 °F 35.6 °F 100% 29.97 in 0.2 mi NNW 3.5 mph - N/A   Overcast
4:56 PM 35.6 °F 32.8 °F 35.6 °F 100% 29.97 in 0.2 mi NNW 3.5 mph - N/A   Overcast
5:16 PM 35.6 °F - 35.6 °F 100% 29.97 in 0.5 mi Calm Calm - N/A   Overcast
5:36 PM 35.6 °F - 35.6 °F 100% 29.96 in 0.8 mi Calm Calm - N/A   Overcast
5:56 PM 35.6 °F - 35.6 °F 100% 29.96 in 1.0 mi Calm Calm - N/A   Overcast
6:16 PM 35.6 °F - 35.6 °F 100% 29.95 in 0.5 mi Calm Calm - N/A   Overcast
6:36 PM 35.6 °F - 33.8 °F 93% 29.96 in 0.5 mi Calm Calm - N/A   Overcast
6:56 PM 35.6 °F - 33.8 °F 93% 29.96 in 0.5 mi Calm Calm - N/A   Overcast
7:16 PM 35.6 °F - 33.8 °F 93% 29.96 in 0.5 mi Calm Calm - N/A   Overcast
7:36 PM 33.8 °F - 33.8 °F 100% 29.96 in 0.5 mi Calm Calm - N/A   Overcast
7:56 PM 35.6 °F - 33.8 °F 93% 29.96 in 0.2 mi Calm Calm - N/A   Overcast
8:16 PM 33.8 °F - 33.8 °F 100% 29.96 in 0.2 mi Calm Calm - N/A   Overcast
8:36 PM 35.6 °F - 35.6 °F 100% 29.96 in 0.2 mi Calm Calm - N/A   Overcast
8:56 PM 33.8 °F - 33.8 °F 100% 29.96 in 0.2 mi Calm Calm - N/A   Overcast
9:16 PM 33.8 °F - 33.8 °F 100% 29.96 in 0.2 mi Calm Calm - N/A   Overcast
9:36 PM 35.6 °F - 33.8 °F 93% 29.96 in 0.2 mi Calm Calm - N/A   Overcast
9:56 PM 35.6 °F - 33.8 °F 93% 29.95 in 0.5 mi Calm Calm - N/A   Overcast
10:16 PM 35.6 °F - 33.8 °F 93% 29.95 in 0.8 mi Calm Calm - N/A   Overcast
10:36 PM 35.6 °F - 33.8 °F 93% 29.95 in 1.5 mi Calm Calm - N/A   Overcast
10:56 PM 33.8 °F - 33.8 °F 100% 29.94 in 2.5 mi Calm Calm - N/A   Overcast
11:16 PM 35.6 °F - 33.8 °F 93% 29.94 in 1.5 mi Calm Calm - N/A   Overcast
11:36 PM 33.8 °F - 33.8 °F 100% 29.94 in 2.5 mi Calm Calm - N/A   Overcast
11:56 PM 33.8 °F - 33.8 °F 100% 29.93 in 4.0 mi Calm Calm - N/A   Overcast